Showing default

DRAGON FREEDOM 3, 67796

Orbit data source: Space-Track

DRAGON FREEDOM 3, 67796 is a payload satellite owned by SpaceX (US) in LEO that was launched on Fri, 13 Feb 2026 UTC via an FALCON 9 launch vehicle from the Air Force Eastern Test Range (AFETR). Payload-class satellites include a variety of spacecraft equipped with specific instruments for various scientific and technological missions. These include communications satellites like Starlink; space stations such as the ISS; scientific satellites like the Hubble; Earth observation satellites from companies like Planet Labs, Umbra, and HawkEye 360; GPS; miniature CubeSats for education and research; and military/defense satellites.

Loading next visibility...
Identifier
67796, 2026-031A
Orbit
LEO
Country
Flag of USUS
Related business
Manufacturer
SpaceX
Mission
Operational spacecraft
Bus & Motor
DRAGON CM, Unknown motor
Mass
~13,055 kg wet, ~9,500 kg dry
Launch date (UTC)
2026-02-13 (1 month ago)
Launch vehicle
FALCON 9
Launch site
Air Force Eastern Test Range (AFETR)
Object type
Payload
Rocket body
Debris
Shape & HBR
Unknown
Radar Cross Section
RCS unknown

Expand to show TLE details & history
Last TLE update: 11 hours ago

TLE from 11 hours ago
0 DRAGON FREEDOM 3
1 67796U 26031A   26071.86901803  .00011348  00000-0  21655-3 0  9997
2 67796  51.6324  56.6367 0007924 186.1410 173.9482 15.48614629556729
Epoch: 2026-03-12T20:51Z
TLE epoch observation values (Epoch: 2026-03-12T20:51:23.157Z)
Latitude
-0.00006°
Longitude
-66.72256°
Altitude
426.875 km
Speed
7.654 km/s
True Right ascension
03h 46m 32s
True Declination
0° 00' 00"
Sunlit
Object was in daylight at epoch
Visualization orbit readout
Latitude
Unknown
Longitude
Unknown
Altitude
Unknown
Speed
Unknown
Apparent Right ascension
Unknown
Apparent Declination
Unknown
Sunlit
N/A
Visualization observer readout
Local Sidereal Time
12:32:57
Azimuth
Unknown
Elevation
Unknown
Doppler factor
Unknown
Orbital elements
Apogee altitude
426.675 km
Perigee altitude
415.899 km
Semi-major axis
6,799.424 km
Eccentricity
0.00079
Inclination
51.6324°
RAAN
56.6367°
Arg. of periapsis
186.141°
True anomaly
173.95776°
Mean anomaly
173.9482°
Eccentric anomaly
173.95298°
Mean motion
3.87111 °/min
Orbital period
93 mins
BSTAR
0.00021655
Loading maneuver chart data...
Computing Atmospheric mass density...
Loading historical data...
Loading historical data...
Loading historical data...
Loading historical data...
Loading historical data...
Loading historical data...
Loading historical data...
Other satellites on launch #31 in the year 2026 (2026-02-13 UTC)

Documentation

Showing up to 5 results
|